CAPE
22 21 3 29 38 68 163 68 81 36 106 276 436 492 543 95 105 127 0 0 28 83 19 0 0 0 0 0 0 0 0 0 0 0 0 0 0 0 0 0 0 0 0 0 0 0 0
8 24 12 24 17 22 48 114 156 173 46 136 276 288 512 385 361 256 107 135 55 16 0 0 0 0 0 0 0 0 0 0 0 0 0 0 0 0 0 0 0 0 0 0 0 0 0
7 8 3 2 21 27 35 74 62 83 71 70 197 204 301 165 144 83 55 42 4 0 0 0 0 0 0 0 0 0 0 0 0 0 0 0 0 0 0 0 0 0 0 0 0 0 0
2 5 7 3 1 9 10 10 17 8 1 0 5 109 35 0 1 0 0 0 0 0 0 0 0 0 0 0 0 0 0 0 0 0 0 0 0 0 0 0 0 0 0 0 0 0 0
0 1 3 4 2 1 0 1 0 0 0 0 0 0 0 0 0 0 0 0 0 0 0 0 0 0 0 0 0 0 0 0 0 0 0 0 0 0 0 0 0 0 0 0 0 0 0
4 2 3 3 5 5 3 1 0 0 0 0 0 0 0 0 0 0 0 0 0 0 0 0 0 0 0 0 0 0 0 0 0 0 0 0 0 0 0 0 0 0 0 0 0 0 0
7 7 6 7 10 8 6 5 2 0 0 0 0 0 0 0 0 0 0 0 0 0 0 0 0 0 0 0 0 0 0 0 0 0 0 0 0 0 0 0 0 0 0 0 0 0 0
4 8 7 9 5 3 7 5 4 1 0 0 0 0 0 0 0 0 0 0 0 0 0 0 0 0 0 0 0 0 0 0 0 0 0 0 0 0 0 0 0 0 0 0 0 0 0
7 7 5 6 10 3 5 4 3 2 0 0 0 0 0 0 0 0 0 0 0 0 0 0 0 0 0 0 0 0 0 0 0 0 0 0 0 0 0 0 0 0 0 0 0 0 0
6 4 2 2 3 8 4 6 3 1 0 0 0 0 0 0 0 0 0 0 0 0 0 0 0 0 0 0 0 0 0 0 0 0 0 0 0 0 0 0 0 0 0 0 0 0 0
4 3 1 1 2 3 4 6 5 1 0 0 0 0 0 0 0 0 0 0 0 0 0 0 0 0 0 0 0 0 0 0 0 0 0 0 0 0 0 0 0 0 0 0 0 0 0
4 1 1 1 3 4 4 5 5 2 0 0 0 0 0 0 0 0 0 0 0 0 0 0 0 0 0 0 0 0 0 0 0 0 0 0 0 0 0 0 0 0 0 0 0 0 0
2 1 2 1 1 2 3 6 6 1 0 0 0 0 0 0 0 0 0 0 0 0 0 0 0 0 0 0 0 0 0 0 0 0 0 0 0 0 0 0 0 0 0 0 0 0 0
2 2 1 1 1 2 1 2 5 2 0 0 0 0 0 0 0 0 0 0 0 0 0 0 0 0 0 0 0 0 0 0 0 0 0 0 0 0 0 0 0 0 0 0 0 0 0
1 1 1 1 1 1 1 1 2 3 0 0 0 0 0 0 0 0 0 0 0 0 0 0 0 0 0 0 0 0 0 0 0 0 0 0 0 0 0 0 0 0 0 0 0 0 0
0 2 2 1 0 0 1 0 0 1 0 0 0 0 0 0 0 0 0 0 0 0 0 0 0 0 0 0 0 0 0 0 0 0 0 0 0 0 0 0 0 0 0 0 0 0 0
5 2 0 0 1 1 0 0 0 0 1 0 0 0 0 0 0 0 0 0 0 0 0 0 0 0 0 0 0 0 0 0 0 0 0 0 0 0 0 0 0 0 0 0 0 0 0
5 10 2 0 0 0 0 0 0 0 0 0 0 0 0 0 0 0 0 0 0 0 0 0 0 0 0 0 0 0 0 0 0 0 0 0 0 0 0 0 0 0 0 0 0 0 0
5 6 6 0 0 0 0 0 0 0 0 0 0 0 0 0 0 0 0 0 0 0 0 0 0 0 0 0 0 0 0 0 0 0 0 0 0 0 0 0 0 0 0 0 0 0 0
1 6 10 10 0 0 0 0 0 0 0 0 0 0 0 0 0 0 0 0 0 0 0 0 0 0 0 0 0 0 0 0 0 0 0 0 0 0 0 0 0 0 0 0 0 0 0
0 0 4 7 0 2 0 0 0 0 0 0 0 0 0 0 0 0 0 0 0 0 0 0 0 0 0 0 0 0 0 0 0 0 0 0 0 0 0 0 0 0 0 0 0 0 0
0 0 0 5 7 3 1 0 0 0 0 0 0 0 0 0 0 0 0 0 0 0 0 0 0 0 0 0 0 0 0 0 0 0 0 0 0 0 0 0 0 0 0 0 0 0 0
0 0 0 0 0 0 0 0 0 0 0 0 0 0 0 0 0 0 0 0 0 0 0 0 0 0 0 0 0 0 0 0 0 0 0 0 0 0 0 0 0 0 0 0 0 0 0
3 0 0 0 0 0 0 0 0 0 0 0 0 0 0 0 0 0 0 0 0 0 0 0 0 0 0 0 0 0 0 0 0 0 0 0 0 0 0 0 0 0 0 0 0 0 0
9 4 2 0 0 0 0 1 0 0 0 0 0 0 0 0 0 0 0 0 0 0 0 0 0 0 0 0 0 0 0 0 0 0 0 0 0 0 0 0 0 0 0 0 0 0 0
3 8 13 2 0 0 0 0 1 0 0 0 0 0 0 0 0 0 0 0 0 0 0 0 0 0 0 0 0 0 0 0 0 0 0 0 0 0 0 0 0 0 0 0 0 0 0
9 4 8 11 2 0 0 0 0 0 0 0 0 0 0 0 0 0 0 0 0 0 0 0 0 0 0 0 0 0 0 0 0 0 0 0 0 0 0 0 0 0 0 0 0 0 0
7 8 2 3 4 2 0 0 1 0 0 0 0 0 0 0 0 0 0 0 0 0 0 0 0 0 0 0 0 0 0 0 0 0 0 0 0 0 0 0 0 0 0 0 0 0 0
3 13 13 1 2 1 1 0 0 1 0 0 0 0 0 0 0 0 0 0 0 0 0 0 0 0 0 0 0 0 0 0 0 0 0 0 0 0 0 0 0 0 0 0 0 0 0
CIN
-9 -5 -8 -21 -15 -3 0 -2 -7 -13 -6 0 -1 -1 -3 -54 -48 -1 0 0 -46 -6 -18 0 0 0 0 0 0 0 0 0 0 0 0 0 0 0 0 0 0 0 0 0 0 0 0
-3 -10 -19 -31 -28 -33 -19 -12 -2 -5 -11 -13 -7 -6 -2 -1 -1 -8 -5 -3 -23 -51 0 0 0 0 0 0 0 0 0 0 0 0 0 0 0 0 0 0 0 0 0 0 0 0 0
0 -1 -2 -2 -50 -42 -43 -38 -22 -17 -14 -5 -5 -13 -8 -34 -44 -22 -16 -40 -63 0 0 0 0 0 0 0 0 0 0 0 0 0 0 0 0 0 0 0 0 0 0 0 0 0 0
0 0 0 0 0 -106 -81 -79 -76 -53 -24 0 -34 -20 -45 0 -116 0 0 0 0 0 0 0 0 0 0 0 0 0 0 0 0 0 0 0 0 0 0 0 0 0 0 0 0 0 0
0 0 0 0 0 0 0 0 0 0 0 0 0 0 0 0 0 0 0 0 0 0 0 0 0 0 0 0 0 0 0 0 0 0 0 0 0 0 0 0 0 0 0 0 0 0 0
0 0 0 0 0 0 0 0 0 0 0 0 0 0 0 0 0 0 0 0 0 0 0 0 0 0 0 0 0 0 0 0 0 0 0 0 0 0 0 0 0 0 0 0 0 0 0
0 0 0 0 0 0 0 0 0 0 0 0 0 0 0 0 0 0 0 0 0 0 0 0 0 0 0 0 0 0 0 0 0 0 0 0 0 0 0 0 0 0 0 0 0 0 0
0 0 0 0 0 0 0 0 0 0 0 0 0 0 0 0 0 0 0 0 0 0 0 0 0 0 0 0 0 0 0 0 0 0 0 0 0 0 0 0 0 0 0 0 0 0 0
0 0 0 0 0 0 0 0 0 0 0 0 0 0 0 0 0 0 0 0 0 0 0 0 0 0 0 0 0 0 0 0 0 0 0 0 0 0 0 0 0 0 0 0 0 0 0
0 0 0 0 0 0 0 0 0 0 0 0 0 0 0 0 0 0 0 0 0 0 0 0 0 0 0 0 0 0 0 0 0 0 0 0 0 0 0 0 0 0 0 0 0 0 0
0 0 0 0 0 0 0 0 0 0 0 0 0 0 0 0 0 0 0 0 0 0 0 0 0 0 0 0 0 0 0 0 0 0 0 0 0 0 0 0 0 0 0 0 0 0 0
0 0 0 0 0 0 0 0 0 0 0 0 0 0 0 0 0 0 0 0 0 0 0 0 0 0 0 0 0 0 0 0 0 0 0 0 0 0 0 0 0 0 0 0 0 0 0
0 0 0 0 0 0 0 0 0 0 0 0 0 0 0 0 0 0 0 0 0 0 0 0 0 0 0 0 0 0 0 0 0 0 0 0 0 0 0 0 0 0 0 0 0 0 0
0 0 0 0 0 0 0 0 0 0 0 0 0 0 0 0 0 0 0 0 0 0 0 0 0 0 0 0 0 0 0 0 0 0 0 0 0 0 0 0 0 0 0 0 0 0 0
0 0 0 0 0 0 0 0 0 0 0 0 0 0 0 0 0 0 0 0 0 0 0 0 0 0 0 0 0 0 0 0 0 0 0 0 0 0 0 0 0 0 0 0 0 0 0
0 0 0 0 0 0 0 0 0 0 0 0 0 0 0 0 0 0 0 0 0 0 0 0 0 0 0 0 0 0 0 0 0 0 0 0 0 0 0 0 0 0 0 0 0 0 0
-2 0 0 0 0 0 0 0 0 0 0 0 0 0 0 0 0 0 0 0 0 0 0 0 0 0 0 0 0 0 0 0 0 0 0 0 0 0 0 0 0 0 0 0 0 0 0
-2 -2 -2 0 0 0 0 0 0 0 0 0 0 0 0 0 0 0 0 0 0 0 0 0 0 0 0 0 0 0 0 0 0 0 0 0 0 0 0 0 0 0 0 0 0 0 0
-6 -4 -3 0 0 0 0 0 0 0 0 0 0 0 0 0 0 0 0 0 0 0 0 0 0 0 0 0 0 0 0 0 0 0 0 0 0 0 0 0 0 0 0 0 0 0 0
-3 -3 -2 -7 0 0 0 0 0 0 0 0 0 0 0 0 0 0 0 0 0 0 0 0 0 0 0 0 0 0 0 0 0 0 0 0 0 0 0 0 0 0 0 0 0 0 0
0 0 -2 0 0 -1 -1 0 0 0 0 0 0 0 0 0 0 0 0 0 0 0 0 0 0 0 0 0 0 0 0 0 0 0 0 0 0 0 0 0 0 0 0 0 0 0 0
0 0 0 -1 -1 -2 -4 0 0 0 0 0 0 0 0 0 0 0 0 0 0 0 0 0 0 0 0 0 0 0 0 0 0 0 0 0 0 0 0 0 0 0 0 0 0 0 0
0 0 0 0 0 0 0 0 0 0 0 0 0 0 0 0 0 0 0 0 0 0 0 0 0 0 0 0 0 0 0 0 0 0 0 0 0 0 0 0 0 0 0 0 0 0 0
-25 0 0 0 0 0 0 0 0 0 0 0 0 0 0 0 0 0 0 0 0 0 0 0 0 0 0 0 0 0 0 0 0 0 0 0 0 0 0 0 0 0 0 0 0 0 0
-14 -20 -18 0 0 0 0 -4 0 0 0 0 0 0 0 0 0 0 0 0 0 0 0 0 0 0 0 0 0 0 0 0 0 0 0 0 0 0 0 0 0 0 0 0 0 0 0
-10 -12 -21 -23 0 0 0 0 0 0 0 0 0 0 0 0 0 0 0 0 0 0 0 0 0 0 0 0 0 0 0 0 0 0 0 0 0 0 0 0 0 0 0 0 0 0 0
0 -1 -12 -24 -31 0 0 0 0 0 0 0 0 0 0 0 0 0 0 0 0 0 0 0 0 0 0 0 0 0 0 0 0 0 0 0 0 0 0 0 0 0 0 0 0 0 0
-1 -3 -4 -21 -27 -33 0 0 -18 -6 0 0 0 0 0 0 0 0 0 0 0 0 0 0 0 0 0 0 0 0 0 0 0 0 0 0 0 0 0 0 0 0 0 0 0 0 0
-1 0 -4 -10 -25 -27 -29 0 0 -17 0 0 0 0 0 0 0 0 0 0 0 0 0 0 0 0 0 0 0 0 0 0 0 0 0 0 0 0 0 0 0 0 0 0 0 0 0
Wind_Speed
20 21 21 21 21 21 19 18 15 15 16 18 19 16 19 22 20 19 15 13 19 10 7 6 5 2 3 4 1 3 14 10 3 2 2 3 3 3 6 4 3 5 2 3 2 3 2
19 19 19 19 20 20 20 18 16 10 13 15 15 13 14 13 13 14 17 12 13 8 6 1 1 3 2 4 5 5 7 4 4 2 2 3 4 3 6 4 4 2 4 3 2 2 3
19 19 18 18 18 19 18 18 18 16 16 15 13 11 10 10 8 10 8 8 8 5 4 2 4 3 6 4 2 6 6 3 3 1 3 2 4 5 4 4 2 5 4 2 5 2 2
20 20 19 18 17 17 18 18 17 16 14 13 11 7 8 7 6 8 7 6 7 4 2 4 6 3 2 4 3 5 6 3 5 4 5 3 5 8 5 3 7 4 6 2 3 5 3
20 20 20 19 18 18 18 17 16 15 15 13 9 8 6 6 7 9 5 6 5 3 4 4 2 4 1 6 5 4 4 3 3 4 6 4 6 5 6 5 5 7 2 1 2 4 4
19 20 21 20 20 19 18 17 16 15 14 14 13 11 9 8 9 9 6 3 6 6 4 1 3 4 5 3 4 4 4 4 6 3 5 9 7 5 5 5 5 4 3 2 3 5 5
20 20 20 20 20 19 18 17 15 15 14 14 13 11 9 6 7 9 5 4 6 8 10 4 2 4 1 6 2 7 5 4 4 9 4 5 9 3 2 2 3 5 3 0 2 3 5
21 21 21 21 22 20 19 18 16 14 14 14 13 11 6 6 7 6 4 5 3 3 6 5 3 4 2 2 5 10 6 5 6 4 3 8 4 1 2 3 4 4 2 2 4 2 3
20 21 22 22 22 22 21 19 17 15 14 13 12 10 6 5 3 5 5 4 2 1 5 5 3 4 4 5 4 8 5 2 6 6 5 7 1 2 2 5 4 4 2 1 2 7 1
21 21 22 23 22 22 22 20 18 16 14 12 11 9 6 6 3 1 4 3 3 1 7 11 8 6 4 2 6 2 3 3 7 5 3 6 2 2 4 4 2 1 2 2 2 5 3
20 21 22 22 23 23 23 21 20 17 14 13 13 11 7 8 4 4 1 4 2 3 8 7 7 3 4 6 2 9 3 6 5 4 4 1 2 4 5 2 2 2 2 2 2 4 5
18 19 20 22 22 21 21 21 20 18 15 12 11 12 2 5 4 1 2 3 3 9 1 6 4 4 4 6 3 3 5 7 4 5 7 3 0 3 2 3 3 3 4 7 5 3 4
17 18 19 20 20 21 21 21 20 18 15 12 10 8 5 1 1 3 2 4 8 8 3 4 2 4 4 5 5 4 5 6 3 6 4 4 2 2 1 2 1 6 7 5 7 5 7
17 18 18 20 21 21 22 22 21 19 14 10 10 5 4 1 3 1 3 7 10 2 2 1 1 2 4 3 3 3 3 3 5 5 4 4 6 1 2 2 2 3 5 7 6 2 6
16 16 17 17 19 21 23 23 23 20 14 6 4 4 3 4 3 2 6 8 6 4 1 3 1 4 3 2 3 5 3 2 0 2 4 3 2 2 3 2 3 2 2 2 5 2 3
14 16 17 19 21 22 22 23 25 23 18 6 3 3 3 7 3 5 8 3 1 2 2 0 2 1 2 1 3 3 1 1 1 1 2 3 2 1 1 2 2 2 4 3 3 1 5
14 14 15 18 18 20 22 23 23 23 19 2 5 4 3 5 3 7 5 2 1 1 1 2 2 2 2 3 3 1 3 2 1 1 2 3 3 2 3 4 6 2 2 2 2 4 4
12 13 15 18 19 19 22 25 25 24 20 7 3 5 4 3 7 2 3 3 2 2 4 3 3 3 1 1 1 2 4 2 1 3 3 1 4 4 6 1 3 3 5 6 6 4 2
14 15 13 16 20 21 22 23 25 27 17 1 4 1 3 5 5 4 1 3 3 4 4 4 2 2 1 3 1 3 3 1 1 3 5 4 1 3 8 5 2 4 5 4 3 3 7
12 14 15 15 16 19 22 23 24 25 16 5 4 4 6 6 2 5 3 3 2 2 2 3 2 3 3 2 3 2 2 1 2 2 5 4 3 6 8 4 4 4 5 6 6 4 4
11 11 11 12 14 16 19 22 25 26 17 4 5 0 2 2 4 4 3 1 2 2 2 1 2 1 1 1 1 2 1 1 1 1 2 4 3 3 6 8 5 6 7 8 10 7 8
9 10 10 10 12 15 16 20 23 26 15 6 3 2 2 1 2 4 5 3 1 1 2 1 1 1 4 5 7 4 6 5 5 1 4 1 3 1 5 3 4 7 12 14 16 13 12
9 9 9 8 7 11 13 16 18 22 10 4 3 3 2 4 2 2 5 2 2 3 2 2 5 1 3 6 4 3 4 2 4 8 7 5 3 2 6 5 7 8 8 9 5 5 9
9 9 9 9 7 7 8 14 15 16 8 4 2 2 4 3 1 2 2 2 6 6 2 3 1 1 2 3 2 1 1 4 5 5 3 6 5 3 4 4 2 7 3 7 9 7 13
10 10 10 9 9 6 5 6 8 11 10 3 2 3 3 2 1 4 4 3 3 3 6 7 6 5 1 5 3 4 2 3 2 1 5 3 5 2 3 3 8 9 2 4 5 5 2
12 11 11 9 8 8 6 3 4 5 7 3 1 2 3 3 4 2 1 1 2 4 5 3 3 1 3 4 4 2 4 4 2 1 5 3 1 4 2 4 6 3 1 0 2 5 4
13 12 11 10 9 8 7 7 5 1 2 3 1 1 3 2 3 1 3 3 3 1 2 4 3 2 4 2 3 5 5 5 5 6 5 3 1 9 6 4 9 7 6 1 2 3 3
12 12 12 11 10 10 9 8 8 5 3 2 2 2 4 2 5 3 2 3 0 2 3 3 4 1 2 2 3 3 3 4 2 3 6 8 8 5 4 4 10 2 0 4 4 1 3
9 11 12 13 11 11 11 10 10 8 7 4 2 1 1 3 5 2 4 3 2 2 4 2 3 3 4 2 2 0 3 1 3 4 0 3 6 5 11 8 2 2 3 1 4 1 3
Wind_Direction
33 37 37 27 28 32 38 40 49 51 46 48 44 52 96 114 114 129 121 122 123 161 156 185 132 213 228 37 84 286 329 326 315 161 60 108 79 114 110 107 73 82 136 65 89 84 83
28 36 32 31 29 27 27 31 30 31 40 48 60 44 48 70 106 117 140 157 127 152 140 146 282 177 239 79 270 327 321 352 15 75 44 50 139 151 92 68 75 97 86 101 53 17 43
28 29 29 27 23 21 25 22 20 20 29 43 53 66 49 40 53 93 115 130 129 105 91 14 337 114 70 184 308 332 18 21 343 44 93 29 115 72 118 95 146 133 74 28 26 9 18
28 27 25 24 22 22 18 17 18 14 18 23 21 38 58 36 63 82 77 93 76 51 3 354 330 78 83 289 281 24 358 31 18 37 83 66 90 100 62 113 29 56 53 55 346 356 357
24 25 24 22 20 17 18 15 13 15 10 14 23 19 33 62 50 56 43 65 60 335 267 348 77 93 6 319 32 326 41 30 332 36 41 74 64 77 35 81 31 10 161 206 314 26 335
24 23 21 18 17 15 13 12 9 8 13 8 5 3 16 28 33 1 1 356 346 38 11 62 63 58 3 340 326 340 356 30 60 31 31 41 47 68 34 63 202 189 147 247 265 345 2
21 22 21 17 14 13 13 11 9 8 6 10 5 355 358 357 11 11 25 18 24 3 34 63 287 102 21 311 356 3 6 3 43 49 57 13 65 76 104 41 115 107 103 245 294 22 337
24 20 17 15 15 12 11 10 7 7 5 6 7 355 354 28 16 18 52 70 70 164 70 22 44 55 48 301 51 354 8 67 55 68 356 26 77 212 299 43 78 58 89 320 290 2 6
23 19 16 14 13 14 10 8 6 3 1 0 4 7 25 344 340 37 79 85 27 58 89 6 9 37 327 40 65 344 24 59 81 57 17 115 140 338 51 42 75 37 69 47 256 323 49
20 16 13 11 12 12 12 8 3 2 358 356 357 4 358 307 59 291 52 6 23 32 78 333 349 2 1 46 49 341 17 83 39 125 89 80 324 74 71 73 57 80 41 73 21 35 277
20 16 12 9 8 8 11 9 5 3 1 357 353 360 42 53 141 57 309 342 7 55 67 307 323 284 357 75 164 354 347 33 76 85 91 251 43 55 68 39 15 138 62 64 72 67 37
20 17 12 7 4 4 5 7 8 4 359 358 357 354 97 28 48 3 330 20 49 45 282 341 316 359 43 18 37 340 42 47 128 76 37 79 314 53 100 67 71 134 75 44 51 68 15
19 16 11 9 3 2 3 4 4 7 359 351 349 10 55 44 150 305 37 58 40 86 260 322 9 22 69 12 37 46 37 24 69 65 358 22 5 357 80 112 54 65 51 339 353 12 221
16 14 14 8 2 2 1 1 2 0 360 348 343 29 24 64 316 320 69 52 69 185 198 221 8 66 84 4 32 47 75 62 35 76 100 126 326 39 9 84 166 80 133 154 231 238 273
14 12 10 9 7 2 360 359 358 360 354 1 33 360 18 323 346 57 73 51 182 218 231 135 77 82 27 38 101 72 64 121 92 58 124 123 293 5 48 35 93 140 187 164 101 357 34
8 9 8 6 4 3 1 359 357 358 358 48 79 48 324 322 3 56 70 130 139 251 327 356 95 57 115 22 66 80 208 251 160 127 135 177 45 31 21 66 30 170 159 66 2 200 270
359 4 6 6 4 360 360 359 358 356 350 340 63 48 268 335 60 49 93 174 176 287 356 52 134 105 115 150 134 153 179 324 168 162 75 120 109 293 42 200 182 136 230 87 130 161 198
355 356 1 1 2 3 1 356 354 356 353 40 90 45 309 41 49 37 66 4 319 16 13 43 77 66 103 74 88 156 207 225 279 160 163 173 141 210 211 288 203 198 208 159 131 225 230
353 357 2 5 356 357 358 357 355 354 6 46 83 263 324 82 67 12 331 61 66 30 23 14 71 47 125 152 164 170 187 163 185 146 165 185 355 9 342 356 347 231 206 169 117 80 207
342 349 356 4 356 354 352 354 355 359 5 69 69 35 339 44 122 108 33 9 51 39 53 26 27 33 45 32 22 219 233 318 37 89 99 85 162 192 195 209 135 218 208 192 162 150 201
327 336 348 353 351 355 354 352 355 358 0 78 28 356 196 355 357 63 64 78 15 342 6 42 38 183 156 211 332 261 204 3 23 83 95 120 240 174 266 248 251 243 222 195 205 205 198
318 323 331 347 351 350 359 353 356 359 2 76 71 78 20 149 220 85 5 20 175 256 168 286 254 236 186 193 193 214 166 189 207 108 167 133 257 141 284 326 225 263 247 233 235 234 258
305 319 321 327 348 352 355 357 358 3 33 68 351 351 65 330 353 103 181 151 330 350 260 239 196 160 239 244 213 244 215 172 178 163 184 164 158 61 272 348 319 293 247 204 190 203 209
284 297 310 315 323 347 2 1 355 5 42 118 155 117 35 310 8 284 262 204 167 161 213 305 317 206 343 352 319 55 237 241 200 224 168 149 138 147 264 345 239 239 220 178 201 228 216
289 282 290 299 307 317 346 4 0 354 12 76 141 100 104 296 300 333 320 300 319 298 185 177 170 179 236 16 357 335 313 305 229 197 201 170 141 217 241 225 298 294 149 132 167 288 219
281 284 276 279 290 299 301 306 349 349 8 76 54 126 107 107 264 228 198 314 293 311 325 288 334 298 82 125 126 204 260 277 291 20 18 95 39 168 146 212 237 262 34 359 145 283 349
274 276 279 271 266 274 280 285 290 247 37 97 253 127 95 135 250 185 232 208 150 153 241 308 324 335 360 116 175 194 231 183 212 188 170 149 191 220 231 267 284 264 291 315 115 263 1
279 264 268 265 255 253 251 256 271 259 227 120 252 194 133 180 273 201 229 187 143 156 171 263 5 345 48 190 191 238 210 254 288 161 180 171 162 194 153 213 269 242 83 189 213 35 349
307 288 271 264 254 246 241 240 246 252 202 167 269 256 115 155 239 258 245 239 236 236 155 224 205 183 212 117 264 343 249 246 202 263 356 239 205 185 191 214 214 223 218 82 138 245 306